Alturas, CA

4:05 PM PST on February 27, 2017 (GMT -0800)
Alturas Municipal

Weather History for KAAT - March, 2012

Change the Weather History Date:

Sunday, March 11, 2012

  Actual Average Record
Temperature  
Mean Temperature 39 °F 38 °F  
Max Temperature 46 °F 51 °F 77 °F (1934)
Min Temperature 31 °F 25 °F -6 °F (1917)
Degree Days  
Heating Degree Days 26 27  
Month to date heating degree days 332 304  
Since 1 July heating degree days 4987 5171  
Cooling Degree Days 0 0  
Month to date cooling degree days 0 0  
Year to date cooling degree days 0 0  
Moisture  
Dew Point 30 °F    
Average Humidity 73    
Maximum Humidity 96    
Minimum Humidity 49    
Precipitation  
Precipitation 0.04 in 0.05 in 0.70 in (1983)
Month to date precipitation 0.09 0.51  
Year to date precipitation 1.87 3.61  
Sea Level Pressure  
Sea Level Pressure 29.81 in    
Wind  
Wind Speed 13 mph (SW)    
Max Wind Speed 32 mph    
Max Gust Speed 45 mph    
Visibility 8 miles    
Events Rain , Snow    
T = Trace of Precipitation, MM = Missing Value Source: NWS Daily Summary

Daily Weather History Graph

Daily Weather History Graph

Search for Another Location

Airport or City:

Trip Planner

Search our weather history database for the weather conditions in past years. The results will help you decide how hot, cold, wet, or windy it might be!

Date:

Astronomy

Mar. 11, 2012 Rise Set
Actual Time 7:19 AM PDT 7:05 PM PDT
Civil Twilight 6:52 AM PDT 7:32 PM PDT
Nautical Twilight 6:20 AM PDT 8:04 PM PDT
Astronomical Twilight 5:47 AM PDT 8:37 PM PDT
Moon 11:39 PM PDT (3/11) 8:55 AM PDT (3/11)
Length of Visible Light 12h 40m
Length of Day
11h 45m
Waning Gibbous, 84% of the Moon is Illuminated
Mar 11
Waning Gibbous
Mar 14
Last Quarter
Mar 22
New
Mar 30
First Quarter
Apr 6
Full

Hourly Weather History & Observations

Time (PDT) Temp. Windchill Dew Point Humidity Pressure Visibility Wind Dir Wind Speed Gust Speed Precip Events Conditions
12:55 AM 43.0 °F 36.8 °F 24.1 °F 47% 29.73 in 10.0 mi South 11.5 mph - N/A   Overcast
1:55 AM 43.0 °F 36.0 °F 24.1 °F 47% 29.72 in 10.0 mi South 13.8 mph - N/A   Overcast
3:55 AM 43.0 °F 36.0 °F 25.0 °F 49% 29.69 in 10.0 mi South 13.8 mph - N/A   Overcast
4:55 AM 41.0 °F 34.3 °F 27.0 °F 57% 29.69 in 10.0 mi South 11.5 mph - N/A   Overcast
5:47 AM 41.0 °F 34.7 °F 28.4 °F 61% 29.73 in 10.0 mi South 10.4 mph - N/A   Overcast
5:55 AM 41.0 °F 34.3 °F 28.9 °F 62% 29.69 in 10.0 mi South 11.5 mph - N/A   Overcast
6:55 AM 39.9 °F 33.9 °F 30.9 °F 70% 29.70 in 10.0 mi SSW 9.2 mph - N/A   Overcast
7:10 AM 39.2 °F 33.6 °F 32.0 °F 75% 29.72 in 10.0 mi South 8.1 mph - N/A   Overcast
7:55 AM 39.9 °F 32.9 °F 30.0 °F 68% 29.71 in 10.0 mi SSW 11.5 mph 21.9 mph N/A   Partly Cloudy
8:55 AM 43.0 °F 36.4 °F 28.9 °F 58% 29.72 in 10.0 mi SW 12.7 mph 23.0 mph N/A   Partly Cloudy
9:55 AM 46.0 °F 37.0 °F 28.9 °F 51% 29.73 in 10.0 mi SW 27.6 mph 38.0 mph N/A   Scattered Clouds
10:55 AM 43.0 °F 34.0 °F 32.0 °F 65% 29.77 in 10.0 mi West 21.9 mph 28.8 mph 0.00 in Rain Light Rain
11:55 AM 41.0 °F 31.6 °F 33.1 °F 73% 29.81 in 10.0 mi West 20.7 mph 29.9 mph N/A   Overcast
12:55 PM 42.1 °F 33.6 °F 32.0 °F 67% 29.82 in 10.0 mi West 18.4 mph 28.8 mph 0.00 in Rain Light Rain
1:55 PM 41.0 °F 31.4 °F 30.0 °F 65% 29.81 in 10.0 mi West 21.9 mph 32.2 mph 0.00 in   Overcast
2:55 PM 41.0 °F 32.2 °F 28.9 °F 62% 29.81 in 10.0 mi West 18.4 mph 28.8 mph N/A   Overcast
3:55 PM 39.9 °F 30.8 °F 30.0 °F 68% 29.81 in 10.0 mi West 18.4 mph 26.5 mph 0.00 in   Overcast
4:55 PM 39.9 °F 31.8 °F 28.9 °F 65% 29.82 in 10.0 mi West 15.0 mph 24.2 mph 0.00 in   Overcast
5:55 PM 36.0 °F 26.0 °F 33.1 °F 89% 29.84 in 10.0 mi West 17.3 mph 20.7 mph 0.00 in   Overcast
6:13 PM 35.6 °F 26.2 °F 33.8 °F 93% 29.84 in 8.0 mi West 15.0 mph - 0.00 in Snow Light Snow
6:23 PM 33.8 °F 22.8 °F 32.0 °F 93% 29.85 in 2.5 mi West 18.4 mph 24.2 mph 0.00 in Snow Light Snow
6:42 PM 33.8 °F 23.9 °F 32.0 °F 93% 29.85 in 7.0 mi West 15.0 mph - 0.01 in Snow Light Snow
6:55 PM 34.0 °F 26.0 °F 32.0 °F 92% 29.87 in 9.0 mi West 10.4 mph - 0.01 in Snow Light Snow
7:48 PM 33.8 °F - 32.0 °F 93% 29.87 in 4.0 mi Calm Calm - 0.00 in Snow Light Snow
7:55 PM 33.1 °F - 32.0 °F 96% 29.88 in 2.5 mi Calm Calm - 0.00 in Snow Light Snow
8:09 PM 32.0 °F 27.5 °F 32.0 °F 100% 29.86 in 1.8 mi West 4.6 mph - 0.01 in Snow Light Snow
8:20 PM 32.0 °F 28.7 °F 32.0 °F 100% 29.86 in 2.5 mi WSW 3.5 mph - 0.01 in Snow Light Snow
8:37 PM 32.0 °F 27.5 °F 32.0 °F 100% 29.87 in 2.5 mi WSW 4.6 mph - 0.02 in Snow Light Snow
8:45 PM 33.8 °F - 32.0 °F 93% 29.87 in 1.8 mi Calm Calm - 0.03 in Snow Light Snow
8:55 PM 33.1 °F - 32.0 °F 96% 29.88 in 1.8 mi Calm Calm - 0.03 in Snow Light Snow
9:02 PM 33.8 °F - 32.0 °F 93% 29.87 in 3.0 mi Calm Calm - 0.00 in Snow Light Snow
9:09 PM 32.0 °F - 32.0 °F 100% 29.87 in 4.0 mi Calm Calm - 0.00 in Snow Light Snow
9:19 PM 33.8 °F - 32.0 °F 93% 29.86 in 9.0 mi Calm Calm - 0.00 in   Overcast
9:55 PM 32.0 °F 28.7 °F 32.0 °F 100% 29.86 in 10.0 mi South 3.5 mph - 0.00 in   Overcast
10:55 PM 32.0 °F 25.6 °F 30.0 °F 92% 29.87 in 10.0 mi SW 6.9 mph - N/A   Mostly Cloudy
11:55 PM 33.1 °F - 28.9 °F 85% 29.87 in 10.0 mi Calm Calm - N/A   Mostly Cloudy
12:55 AM 32.0 °F 25.6 °F 28.9 °F 88% 29.86 in 10.0 mi South 6.9 mph - N/A   Overcast